Weather in Malyshevo

Russia / Novosibirsk Oblast     53°44′35″N   82°03′25″E
temp.,
°C
wind,
m/s
gust,
m/s
humid.,
%
clouds,
%
prec.,
mm/h
press.,
hPa
HPBL,
m
25 february, thu
thu2501:00−18wsw4118867 3.1 1016291
04:00−21wsw412860 0.0 1018267
07:00−22w613851 0.0 1019361
10:00−23ssw510900 0.0 1020344
13:00−19sw7138048 0.0 10211366
16:00−17sw91583100 0.1 10222020
19:00−19wsw51392100 0.3 10221268
22:00−20sw41196100 0.1 10231080
26 february, fri
fri2601:00−21sw61191100 0.1 1024885
04:00−22sw71191100 0.1 1026813
07:00−23sw71292100 0.1 1029857
10:00−23sw71291100 0.1 1031912
13:00−22sw81188100 0.1 1034974
16:00−23wsw71189100 0.0 1036798
19:00−25wsw41094100 0.1 1037369
22:00−24sw41096100 0.1 1039591
27 february, sat
sat2701:00−25sw3997100 0.1 1038453
04:00−26sw3798100 0.1 1039228
07:00−26sw3798100 0.1 1039276
10:00−26sw3696100 0.1 1039287
13:00−24sw3692100 0.1 1040383
16:00−22sw369086 0.0 1039478
19:00−26sw229563 0.0 103920
22:00−28ssw12950 0.0 103919
28 february, sun
sun2801:00−28sse12950 0.0 103919
04:00−28se229587 0.0 103819
07:00−28se239380 0.0 103720
10:00−24se349362 0.0 1035120
13:00−14s488576 0.0 1032539
16:00−10s61081100 0.0 1030746
19:00−9sse51288100 0.1 1026767
22:00−9s71494100 1.6 1022907
1 march, mon
mon101:00−8ssw71494100 3.4 1019834
04:00−7ssw71594100 2.0 1016848
07:00−5ssw81693100 2.8 1015886
10:00−4sw101789100 0.8 1014922
13:00−2sw101689100 1.1 1014936
16:00−1sw91593100 0.5 10141017
19:00−1sw81493100 1.1 1015856
22:00−1sw71492100 0.2 1015774